Regional Weather Roundup
Issued by NWS Wakefield, VA

Home | Current Version | Previous Version | Graphics & Text | Print | Product List | Glossary Off
Versions: 1 2 3 4 5 6 7 8 9 10 11 12 13 14 15 16 17 18 19 20 21 22 23 24 25 26 27 28 29 30 31 32 33 34 35 36 37 38 39 40 41 42 43 44 45 46 47 48 49 50

000
ASUS41 KAKQ 212216
RWRAKQ

REGIONAL WEATHER ROUNDUP
NATIONAL WEATHER SERVICE WAKEFIELD VA
600 PM EDT THU SEP 21 2017

Note: "fair" indicates few or no clouds below 12,000 feet with no
significant weather and/or obstructions to visibility. * = Denotes
station may not report precipitation (e.g., rain,snow,etc.),
thunder or fog.

VAZ042-051-052>054-056-212300-
NORTHERN VIRGINIA

CITY           SKY/WX    TMP DP  RH WIND       PRES   REMARKS
WASH NATIONAL  MOSUNNY   85  65  51 NW8       30.01S
DULLES         PTSUNNY   83  63  50 N7        30.03R
FORT BELVOIR   SUNNY     84  63  48 NW6       30.01S
QUANTICO       SUNNY     84  65  52 NE3       30.02R
FREDERICKSBRG* SUNNY     83  64  52 N6        30.01R
STAFFORD*      SUNNY     78  68  71 CALM      30.06R
WARRENTON      SUNNY     82  57  42 N5        30.03R
CULPEPER*      MOSUNNY   82  66  58 CALM      30.04R
MANASSAS*      SUNNY     84  63  49 N7        30.03R
LEESBURG*      MOSUNNY   82  64  54 N3        30.04S
WINCHESTER     MOSUNNY   79  61  53 CALM      30.05R
FRONT ROYAL*   PTCLDY    81  63  54 E3        30.04R
LURAY*         PTCLDY    82  61  47 NE3       30.04S
$$

VAZ048-049-060>072-079>083-212300-
CENTRAL AND SOUTH CENTRAL VIRGINIA

CITY           SKY/WX    TMP DP  RH WIND       PRES   REMARKS
RICHMOND       MOSUNNY   85  63  47 NE9       30.00S
CHESTERFIELD*  NOT AVBL
PETERSBURG*    PTSUNNY   83  60  45 NE5       30.01R
HANOVER        SUNNY     81  65  58 CALM      30.02R
TAPPAHANNOCK*  SUNNY     84  51  31 CALM      30.01S
QUINTON*       FAIR      83  66  57 NE3       30.00R
CHARLOTTSVILLE MOSUNNY   85  62  46 E5        30.03S
GORDONSVILLE*  PTCLDY    81  65  58 NE5       30.02S
ORANGE*        MOSUNNY   81  63  54 CALM      30.03R
LOUISA*        SUNNY     81  63  54 NE3       30.02S
BUMPASS*       FAIR      80  70  72 CALM      30.02S
FARMVILLE*     SUNNY     86  62  44 CALM      30.01S
CREWE*         FAIR      80  67  66 CALM      30.02R
FORT PICKETT*  FAIR      83  62  47 N3        30.02S
CHASE CITY*    FAIR      84  64  51 CALM      30.02S
CLARKSVILLE*   FAIR      84  63  48 CALM      30.01S
SOUTH HILL*    SUNNY     83  66  57 CALM      30.07S
LAWRENCEVILLE* FAIR      82  66  59 CALM      30.01S
EMPORIA*       SUNNY     82  64  54 NW3       30.01S
$$

VAZ088>098-212300-
SOUTHEAST VIRGINIA

CITY           SKY/WX    TMP DP  RH WIND       PRES   REMARKS
NORFOLK        SUNNY     80  66  62 NE5       29.99S
VIRGINIA BEACH MOSUNNY   80  65  59 E7        29.99R
NORFOLK NAVAL  MOSUNNY   82  64  54 NE7       30.01S
WEST POINT*    SUNNY     82  63  51 N5        30.02R
SALUDA*        FAIR      82  68  63 N3        30.00S
NEWPORT NEWS   MOSUNNY   81  67  62 E5        30.00
LANGLEY AFB    MOSUNNY   80  68  66 E8        29.99S
FORT EUSTIS    SUNNY     86  69  57 NE5       29.98R
WILLIAMSBURG*  SUNNY     82  72  69 CALM      30.01S
HR EXEC AP*    FAIR      82  69  64 NE6       30.00S
FRANKLIN*      SUNNY     83  64  53 CALM      30.00R
US460-WAKEFLD  SUNNY     84  69  60 CALM      30.00R
$$

VAZ020-022-025-037-045-212300-
WEST CENTRAL AND SOUTHWEST VIRGINIA

CITY           SKY/WX    TMP DP  RH WIND       PRES   REMARKS
STAUNTON*      PTSUNNY   82  59  46 E3        30.07S
WAYNESBORO*    CLOUDY    82  60  47 CALM      30.07S
HOT SPRINGS VA SUNNY     73  55  52 CALM      30.21S
LYNCHBURG      SUNNY     83  62  49 E5        30.05S
DANVILLE       SUNNY     84  65  52 NE7       30.02F
SOUTH BOSTON*  FAIR      84  62  46 CALM      30.02S
MARTINSVILLE   SUNNY     83  66  56 E3        30.07S
ROANOKE        MOSUNNY   83  63  50 SE5       30.06S
BLACKSBURG     CLOUDY    79  65  61 CALM      30.13S
DUBLIN*        MOSUNNY   82  62  51 CALM      30.12S
MARION*        MOSUNNY   76  66  71 CALM      30.16S
HILLSVILLE*    SUNNY     69  64  86 CALM      30.14R
RICHLANDS*     FAIR      79  60  52 N3        30.15S
WISE*          SUNNY     77  59  53 N6        30.16S
ABINGDON*      SUNNY     83  62  49 CALM      30.10F
$$

MDZ021>025-VAZ099-100-212300-
SOUTHERN MARYLAND AND THE DELMARVA PENINSULA

CITY           SKY/WX    TMP DP  RH WIND       PRES   REMARKS
PATUXENT RIVER MOSUNNY   82  63  52 N10       30.00S
BAY BRIDGE APT SUNNY     82  66  57 N5        30.00S
LEONARDTOWN    SUNNY     81  63  54 CALM      30.03R
DOVER          MOSUNNY   83  80  90 N7        30.00R HX  97
GEORGETOWN     MOSUNNY   83  64  52 NE5       30.00R
EASTON         MOSUNNY   84  64  51 N6        30.04R
CAMBRIDGE      SUNNY     82  66  57 NW7       30.00S
SALISBURY      SUNNY     83  65  54 NE5       29.99R
OCEAN CITY     SUNNY     75  67  76 E6        30.01R
WALLOPS ISLAND SUNNY     78  68  71 SE5       30.01R
ACCOMACK*      CLOUDY    78  69  74 E3        30.01R
$$

NCZ012>017-030>032-212300-
NORTH CENTRAL AND EASTERN NORTH CAROLINA

CITY           SKY/WX    TMP DP  RH WIND       PRES   REMARKS
ROANOKE RAPIDS FAIR      82  66  57 CALM      30.00S
RALEIGH        CLOUDY    77  68  73 CALM      30.01S
ELIZABETH CITY SUNNY     80  68  66 E6        30.00R
AHOSKIE*       SUNNY     83  66  57 N5        29.99S
EDENTON*       PTSUNNY   85  70  60 E14G20    29.99S
CURRITUCK*     SUNNY     79  66  63 NE6       30.00S
KILL DEVIL HLS SUNNY     75  64  68 CALM      29.99R
MANTEO         MOSUNNY   76  65  67 E7        30.00S
CAPE HATTERAS  SUNNY     79  70  74 NE8       29.99S
TARBORO*       NOT AVBL
GOLDSBORO      CLOUDY    76  76 100 S5        29.99R
WASHINGTON     CLOUDY    82  70  68 CALM      29.99S
GREENVILLE     PTSUNNY   82  70  65 CALM      30.01R
NEW BERN       PTSUNNY   73  71  93 SW3       30.00R
WILMINGTON     TSTM      72  67  84 NE15      30.03R
$$

VAZ048-212300-
ELSEWHERE

CITY           SKY/WX    TMP DP  RH WIND       PRES   REMARKS
HARRISBURG PA  PTSUNNY   85  62  46 N8        30.01S
BALTIMORE      MOSUNNY   85  64  49 VRB6      30.00S
ANNAPOLIS      SUNNY     82  71  69 SE7       30.00S
ANDREWS AFB    MOSUNNY   83  64  52 NW9       30.00S
PHILADELPHIA   PTSUNNY   84  60  44 N10       29.99R
HENDERSON NC   CLOUDY    79  65  62 CALM      30.02S
GREENSBORO     MOSUNNY   84  66  54 NE8       30.02S
ROCKY MOUNT    MOSUNNY   83  69  62 CALM      30.00S
$$

VAZ100-212300-
MARINE

STATION/POSITION TIME  TEMP    WIND        PRES    WAVE   SWELL
                       AIR SEA DIR/SP/G            HT/PER HT/PER
                 (UTC) (F)     (DEG/KT/KT) (MB)    (FT/S) (FT/S)
BRANDYWINE LGT   2148          170/  9/ 10   N/A
CAPE MAY NJ      2148   77 75  150/  4/  4 1015.5R
LEWES DE         2148   77 74  130/  5/  7 1015.7R
15NM E FENWICK I 2150   74 72   10/  8/ 10 1016.3R   6/10   7/10
OCEAN-CITY-INLET 2148   76 76  100/  5/  6 1016.5R
WACHAPREAGUE VA  2148   76 78  120/  4/  5 1016.2R
THOMAS POINT MD  2200   82 76     CALM       N/A
GOOSES REEF MD   2200   81 76   80/  2/  2 1016.7    0
COVE POINT MD    2148   79      10/  5/  5 1016.7S
SOLOMONS ISLAND  2148   81 77   10/  6/  8 1015.6S
BISHOPS HEAD MD  2148   81 78  300/  9/ 13 1015.9S
PINEY POINT MD   2148          350/  4/  5   N/A
POTOMAC MD       2200   81 78   10/  8/ 12 1015.2    0
CAMBRIDGE MD     2148   84 77              1016.9S
LEWISETTA VA     2148   81 77   10/  3/  5 1015.8S
RAPPAHANNOCK LGT 2148           60/  4/  5 1016.5R
STINGRAY PT      2200   80 77   60/  4/  6 1016.2    0
YORK RVR RNG VA  2148   78     140/  4/  4 1016.4R
YORKTOWN VA      2148   81 77  120/  2/  3 1015.4F
JAMESTOWN VA     2200      79  100/  4/  6   N/A     0
DOMINION TERM VA 2148   81      60/  2/  3 1015.9F
KIPTOPEKE VA     2148      77  320/  6/  7   N/A
CHES BAY BRIDGE  2148   77 76   40/  4/  4 1015.7R
CAPE HENRY VA    2148   78      90/  4/  4   N/A
WILLOUBY STN VA  2148           70/  4/  5   N/A
S CRANEY ISL VA  2148   80      60/  6/  7 1015.5S
CAPE HENRY BUOY  2200      76                N/A     4/11   2/11
1ST LANDING BUOY 2200   77 76              1015.6    2/ 6
64NM E OF VA BCH 2150   71 71   10/  6/  6 1016.1R   6/11   5/11
DUCK PIER NC     2148   76 76   60/  7/  8 1015.3R
44100 DUCK FRF   2135      76                N/A     5/10   3/11
44056 DUCK FRF   2200      76                N/A     4/10   2/11
OREGON INLET NC  2148           40/  8/ 11   N/A
HATTERAS NC      2148   79 78   60/  6/ 11 1015.3F
DIAMOND SHLS NC  2150   77 78   40/ 10/ 12 1015.1F   5/10   5/10
CAPE LOOKOUT NC  2200   79     250/  4/  5 1015.2R
$$



USA.gov is the U.S. government's official web portal to all federal, state and local government web resources and services.